Lid_Strength_Index
1 -0 -1 -1 -1 -2 -2 -2 -2 -2 -1 -1 -1 -1 -1 -1 -1 -1 -1 -1 -1 -1 -1 -1 -2 -1 -2 -2 -1 -1 -1 -0 -1 -2 -2 -2 -2 -2 -2 -2 -1 -1 -1
1 -0 -1 -1 -1 -2 -2 -2 -1 -2 -1 -1 -1 -1 -1 -1 -1 -1 -1 -2 -2 -1 -1 -1 -1 -2 -2 -1 -1 -1 -1 0 0 -0 -2 -2 -2 -2 -2 -1 -1 -1 -1
0 -0 -0 -1 -1 -1 -2 -2 -1 -2 -1 -1 -1 -1 -1 -1 -1 -1 -1 -2 -1 -2 -1 -1 -1 -1 -1 -1 -1 -1 -1 -0 1 -0 -0 -1 -0 -2 -2 -1 -2 -1 -1
-0 -0 -0 -0 -1 -1 -1 -1 -1 -2 -2 -1 -1 -1 -1 -1 -1 -1 -1 -1 -1 -1 -1 -1 -2 -1 -1 -1 -1 -1 -1 -1 -0 -1 1 -1 -1 -1 -2 -1 -1 -2 -2
0 -0 -0 -0 -1 -1 -1 -1 -1 -2 -2 -2 -2 -1 -1 -2 -2 -1 -1 -1 -2 -1 -1 -1 -1 -1 -0 0 0 0 0 -0 -1 0 0 0 -0 -1 -2 -2 -1 -2 -2
1 -0 -0 -1 -1 -1 -1 -1 -2 -1 -2 -2 -2 -2 -1 -2 -1 -2 -2 -2 -2 -1 -1 -1 -1 -1 0 1 1 2 1 0 0 1 1 0 0 -2 -2 -2 -1 -2 -2
3 1 -0 -0 -1 -1 -1 -1 -1 -1 -1 -1 -2 -2 -2 -2 -2 -1 -1 -1 -1 -1 -1 -1 -1 -0 1 2 2 2 2 1 3 2 2 2 1 -1 -1 -1 -1 -1 -1
2 1 -0 1 0 -0 -1 -1 -1 -1 -1 -1 -1 -2 -2 -2 -2 -1 -1 -1 -1 -1 -2 -1 -0 0 1 2 3 3 2 1 3 2 2 3 -2 -1 -1 -1 -1 -1 -1
1 0 0 -0 0 1 0 0 -0 -1 -1 -1 -1 -1 -2 -2 -2 -2 -2 -1 -1 -2 -2 -1 -0 0 1 2 4 4 2 1 7 4 3 3 -2 -1 -1 -1 -1 -1 -1
2 1 0 1 0 0 0 2 1 0 -0 -0 -0 -0 -0 -0 -1 -1 -1 -1 -2 -2 -2 -1 -0 1 2 3 5 5 3 4 8 5 5 3 -0 -0 -0 -1 -1 -1 -1
3 2 1 1 0 1 1 1 2 1 1 1 1 2 2 2 1 0 -0 -1 -2 -2 -1 -0 0 1 3 5 6 6 5 10 9 7 6 2 2 1 1 1 0 -0 -1
4 3 2 2 1 0 0 1 2 1 1 2 2 3 2 3 3 2 2 -1 -2 -2 -1 -0 1 2 5 10 10 7 10 10 10 8 6 3 3 2 1 1 1 -0 -1
3 3 2 2 2 1 0 1 1 1 2 3 2 2 2 2 3 4 3 2 2 2 3 3 4 7 8 9 11 11 11 11 11 9 6 3 3 3 2 1 0 -0 0
4 2 1 2 2 2 1 2 1 1 2 2 1 1 1 1 3 5 4 3 4 5 5 6 7 9 10 10 10 11 11 11 11 10 7 4 3 2 1 0 -0 0 -0
7 5 2 2 2 1 2 3 2 2 2 2 3 1 1 1 3 5 4 3 5 5 6 7 9 10 10 10 10 11 11 11 11 9 9 4 3 2 1 0 0 -0 -1
7 7 4 1 2 2 2 3 3 2 2 3 3 2 1 2 3 5 5 4 4 5 6 8 10 10 11 11 11 11 11 11 11 11 8 6 2 2 2 1 -0 -0 -1
8 7 6 2 2 2 3 3 3 3 3 2 2 2 2 3 3 5 5 4 4 5 7 9 10 10 11 11 11 11 11 11 11 11 9 7 6 3 1 1 0 -1 -0
9 8 7 3 2 3 3 3 3 3 3 3 3 2 3 3 3 4 6 5 5 6 8 10 11 11 11 12 12 12 12 12 11 11 10 8 7 8 5 3 1 -0 1
10 9 9 7 4 3 3 3 3 3 3 3 3 4 3 4 4 6 7 6 6 7 9 10 12 11 12 12 12 13 13 12 12 11 11 9 7 9 9 6 6 5 2
11 10 9 8 7 5 4 4 4 4 4 4 4 3 4 4 6 7 7 6 7 9 10 11 12 12 12 13 11 12 13 12 12 13 12 9 11 10 10 11 10 9 4
12 11 11 10 9 8 7 6 6 5 5 5 3 3 3 3 4 7 7 7 9 9 11 11 12 12 13 13 14 14 14 13 13 13 12 11 11 12 12 12 12 11 9
12 12 12 11 10 10 9 8 7 7 7 5 5 4 4 4 4 6 8 9 10 11 11 12 12 13 13 13 14 15 16 15 14 13 13 13 13 13 13 13 13 12 11
13 13 12 12 11 11 10 9 9 9 9 9 8 7 6 5 5 6 7 9 10 11 11 12 12 12 14 13 14 14 17 16 16 15 14 14 14 15 14 14 14 13 12
13 13 13 12 12 12 12 12 12 11 12 11 10 9 8 7 7 7 7 9 10 12 12 12 12 13 13 14 15 13 14 15 16 17 15 15 14 14 15 15 15 14 13
13 13 13 13 12 12 12 13 13 13 12 12 11 11 11 10 9 8 9 9 10 11 12 13 13 14 14 13 15 15 15 15 15 17 18 17 15 15 14 14 15 15 14
13 14 13 14 13 13 13 13 13 13 13 13 13 13 12 12 11 10 10 10 10 11 12 13 13 14 13 14 14 15 15 15 16 16 17 18 17 16 15 15 15 14 14